Weather History for KPAH - April, 2014

Change the Weather History Date:

Tuesday, April 1, 2014

  Actual Average Record
Temperature  
Mean Temperature 66 °F 53 °F  
Max Temperature 77 °F 65 °F 86 °F (1946)
Min Temperature 54 °F 42 °F 26 °F (1954)
Degree Days  
Heating Degree Days 0 12  
Month to date heating degree days 0 12  
Since 1 July heating degree days 4301 3831  
Cooling Degree Days 1 1  
Month to date cooling degree days 1 1  
Year to date cooling degree days 1 8  
Growing Degree Days 16 (Base 50)    
Moisture  
Dew Point 44 °F    
Average Humidity 48    
Maximum Humidity 66    
Minimum Humidity 29    
Precipitation  
Precipitation 0.00 in 0.15 in 3.20 in (1979)
Month to date precipitation 0.00 0.15  
Year to date precipitation 8.83 11.67  
Snow  
Snow 0.00 in 0.00 in T in (1993)
Month to date snowfall 0.0 0.0  
Since 1 July snowfall 18.5 9.1  
Snow Depth 0.00 in    
Sea Level Pressure  
Sea Level Pressure 30.00 in    
Wind  
Wind Speed 7 mph (WSW)    
Max Wind Speed 15 mph    
Max Gust Speed 17 mph    
Visibility 10 miles    
Events      
T = Trace of Precipitation, MM = Missing Value Source: NWS Daily Summary

Daily Weather History Graph

Daily Weather History Graph

Search for Another Location

Airport or City:

Trip Planner

Search our weather history database for the weather conditions in past years. The results will help you decide how hot, cold, wet, or windy it might be!

Date:

Astronomy

Apr. 01, 2014 Rise Set
Actual Time 6:40 AM CDT 7:17 PM CDT
Civil Twilight 6:14 AM CDT 7:43 PM CDT
Nautical Twilight 5:43 AM CDT 8:14 PM CDT
Astronomical Twilight 5:12 AM CDT 8:46 PM CDT
Moon 7:46 AM CDT (4/1) 9:36 PM CDT (4/1)
Length of Visible Light 13h 29m
Length of Day
12h 36m
Waxing Crescent, 5% of the Moon is Illuminated
Apr 1
Waxing Crescent
Apr 7
First Quarter
Apr 15
Full
Apr 22
Last Quarter
Apr 29
New

Hourly Weather History & Observations

Time (CDT) Temp. Dew Point Humidity Pressure Visibility Wind Dir Wind Speed Gust Speed Precip Events Conditions
12:53 AM 64.9 °F 41.0 °F 42% 29.95 in 10.0 mi SW 11.5 mph - N/A   Overcast
1:53 AM 64.9 °F 43.0 °F 45% 29.97 in 10.0 mi SW 11.5 mph - N/A   Overcast
2:53 AM 60.1 °F 44.1 °F 55% 29.96 in 10.0 mi WSW 8.1 mph - N/A   Clear
3:53 AM 60.1 °F 44.1 °F 55% 29.96 in 10.0 mi SW 6.9 mph - N/A   Clear
4:53 AM 59.0 °F 45.0 °F 60% 29.96 in 10.0 mi SW 6.9 mph - N/A   Clear
5:53 AM 55.9 °F 44.1 °F 64% 29.98 in 10.0 mi SW 5.8 mph - N/A   Clear
6:53 AM 55.9 °F 45.0 °F 67% 30.01 in 10.0 mi SW 6.9 mph - N/A   Clear
7:53 AM 59.0 °F 46.0 °F 62% 30.02 in 10.0 mi SW 6.9 mph - N/A   Clear
8:53 AM 63.0 °F 48.0 °F 58% 30.04 in 10.0 mi SW 10.4 mph - N/A   Clear
9:53 AM 66.9 °F 46.9 °F 49% 30.05 in 10.0 mi West 9.2 mph - N/A   Clear
10:53 AM 69.1 °F 45.0 °F 42% 30.06 in 10.0 mi West 5.8 mph - N/A   Clear
11:53 AM 72.0 °F 44.1 °F 37% 30.05 in 10.0 mi West 5.8 mph - N/A   Clear
12:53 PM 75.0 °F 41.0 °F 29% 30.04 in 10.0 mi WSW 6.9 mph - N/A   Clear
1:53 PM 77.0 °F 42.1 °F 29% 30.02 in 10.0 mi SW 11.5 mph 16.1 mph N/A   Clear
2:53 PM 75.9 °F 46.0 °F 35% 30.00 in 10.0 mi West 6.9 mph - N/A   Overcast
3:53 PM 75.0 °F 46.0 °F 36% 29.99 in 10.0 mi West 9.2 mph - N/A   Overcast
4:53 PM 75.9 °F 46.9 °F 36% 29.98 in 10.0 mi WNW 5.8 mph - N/A   Mostly Cloudy
5:53 PM 73.9 °F 46.9 °F 38% 29.97 in 10.0 mi Calm Calm - N/A   Mostly Cloudy
6:53 PM 66.9 °F 39.9 °F 37% 29.99 in 10.0 mi NNE 9.2 mph - N/A   Mostly Cloudy
7:53 PM 62.1 °F 39.9 °F 44% 30.00 in 10.0 mi NE 6.9 mph - N/A   Partly Cloudy
8:53 PM 60.1 °F 39.9 °F 47% 30.01 in 10.0 mi ENE 6.9 mph - N/A   Clear
9:53 PM 57.9 °F 42.1 °F 56% 30.01 in 10.0 mi East 6.9 mph - N/A   Mostly Cloudy
10:53 PM 57.9 °F 45.0 °F 62% 30.01 in 10.0 mi Calm Calm - N/A   Overcast
11:53 PM 59.0 °F 43.0 °F 55% 30.01 in 10.0 mi East 6.9 mph - N/A   Overcast